Simultaneous Nadir Overpasses (SNOs) Predictions

Prediction of SNOs near equator between AQUA and NPP Satellite Orbit:

Table of predicted SNOs near equator for the next 14.0 days since TLE Epoch: 5/2/2014
Index Date (AQUA) Time (AQUA) AQUA Lat,Lon Date (NPP) Time (NPP) NPP Lat,Lon Distance(km) Time Diff (sec)
1 05/02/2014 20:58:59 29.96,-115.47 05/02/2014 20:49:03 30.09,-114.86 60.61 596
2 05/02/2014 21:48:22 -29.98, 52.18 05/02/2014 21:39:43 -30.03, 52.49 30.05 519
3 05/02/2014 22:37:33 28.81,-139.89 05/02/2014 22:30:11 28.81,-139.88 1.32 442
4 05/02/2014 23:20:46 -6.54, 32.88 05/02/2014 23:14:32 -6.54, 32.87 1.03 374
5 05/03/2014 00:05:15 -11.70,-155.60 05/03/2014 00:00:11 -11.70,-155.71 11.80 304
6 05/03/2014 00:53:23 16.19, 13.05 05/03/2014 00:49:34 16.26, 12.69 39.09 229
7 05/03/2014 01:41:39 -20.69,-178.30 05/03/2014 01:39:05 -20.84,-178.90 64.95 154
8 05/03/2014 02:29:45 25.30, -9.54 05/03/2014 02:28:27 25.47, -10.40 88.15 78
9 05/05/2014 13:15:30 29.97, 0.40 05/05/2014 13:06:02 30.05, 0.92 51.36 568
10 05/05/2014 14:04:53 -29.98, 168.05 05/05/2014 13:56:43 -30.05, 168.25 20.84 490
11 05/05/2014 14:52:23 22.74, -22.53 05/05/2014 14:45:27 22.73, -22.52 0.48 416
12 05/05/2014 15:35:00 1.73, 150.51 05/05/2014 15:29:11 1.73, 150.50 0.65 349
13 05/05/2014 16:21:19 -13.32, -39.37 05/05/2014 16:16:42 -13.38, -39.55 19.79 277
14 05/05/2014 17:09:26 17.87, 129.30 05/05/2014 17:06:05 17.95, 128.87 46.69 201
15 05/05/2014 17:57:41 -22.43, -62.02 05/05/2014 17:55:35 -22.58, -62.70 71.63 126
16 05/05/2014 18:45:48 26.97, 106.74 05/05/2014 18:44:58 27.15, 105.81 94.04 50
17 05/08/2014 05:31:59 29.95, 116.27 05/08/2014 05:23:00 30.01, 116.70 41.91 539
18 05/08/2014 06:21:22 -29.96, -76.08 05/08/2014 06:13:41 -30.01, -75.97 11.53 461
19 05/08/2014 07:06:54 15.60, 94.99 05/08/2014 07:00:24 15.60, 94.99 0.09 390
20 05/08/2014 07:49:05 10.45, -91.75 05/08/2014 07:43:41 10.46, -91.75 1.78 324
21 05/08/2014 08:37:20 -15.03, 76.87 05/08/2014 08:33:12 -15.06, 76.62 27.86 248
22 05/08/2014 09:25:27 19.57,-114.44 05/08/2014 09:22:34 19.68,-114.94 54.16 173
23 05/08/2014 10:13:42 -24.13, 54.26 05/08/2014 10:12:05 -24.26, 53.50 78.38 97
24 05/08/2014 11:01:49 28.67,-136.96 05/08/2014 11:01:27 28.88,-137.95 99.63 22
25 05/10/2014 20:58:59 -29.99, 64.51 05/10/2014 20:49:12 -30.10, 65.15 62.75 587
26 05/10/2014 21:48:29 29.97,-127.86 05/10/2014 21:40:00 30.04,-127.54 32.12 509
27 05/10/2014 22:37:52 -29.98, 39.79 05/10/2014 22:30:40 -29.98, 39.81 1.62 432
28 05/10/2014 23:21:09 7.46,-147.36 05/10/2014 23:15:05 7.46,-147.36 0.23 364
29 05/11/2014 00:05:06 12.18, 24.50 05/11/2014 00:00:11 12.20, 24.42 8.37 295
30 05/11/2014 00:53:21 -16.76,-166.86 05/11/2014 00:49:41 -16.85,-167.19 35.97 220
31 05/11/2014 01:41:28 21.30, 1.84 05/11/2014 01:39:04 21.41, 1.25 61.57 144
32 05/11/2014 02:29:43 -25.85, 170.55 05/11/2014 02:28:34 -26.04, 169.73 84.78 69
33 05/13/2014 13:15:28 -29.98,-179.61 05/13/2014 13:06:11 -30.07,-179.07 52.89 557
34 05/13/2014 14:04:58 29.96, -11.98 05/13/2014 13:56:59 30.02, -11.76 22.30 479
35 05/13/2014 14:52:59 -25.05, 156.91 05/13/2014 14:46:15 -25.05, 156.90 1.42 404
36 05/13/2014 15:35:07 -1.67, -29.54 05/13/2014 15:29:29 -1.67, -29.53 1.20 338
37 05/13/2014 16:21:06 13.94, 140.76 05/13/2014 16:16:40 13.98, 140.61 17.02 266
38 05/13/2014 17:09:20 -18.57, -50.58 05/13/2014 17:06:10 -18.64, -50.99 43.94 190
39 05/13/2014 17:57:28 23.05, 118.13 05/13/2014 17:55:33 23.19, 117.47 68.79 115
40 05/13/2014 18:45:43 -27.60, -73.14 05/13/2014 18:45:04 -27.76, -74.04 91.08 39




NCC Satellite Simultaneous Nadir Overpasses (SNOs) Prediction Service
